Location: Ostrava
(49.8330°N, 18.2830°E)
Time: 18:52:59
(UTC+02:00)

Explorer 7 - Visible Passes

Search period start: 24 October 2014 00:00
Search period end: 02 November 2014 23:00
Orbit: 491 x 705 km, 50.3° (Epoch: 23 October)

Date Brightness Start Highest point End Pass type
(mag) Time Alt. Az. Time Alt. Az. Time Alt. Az.
24 Oct 9.2 04:06:56 21° ESE 04:06:56 21° ESE 04:09:34 10° E visible
24 Oct 7.4 05:43:36 25° SW 05:46:15 66° SSE 05:51:07 10° ENE visible
25 Oct 8.8 04:16:50 29° ESE 04:16:50 29° ESE 04:19:57 10° E visible
25 Oct 7.2 05:53:29 24° WSW 05:56:18 82° SSE 06:01:14 10° E visible
26 Oct 8.3 03:26:39 39° ESE 03:26:39 39° ESE 03:30:09 10° ENE visible
26 Oct 7.2 05:03:18 21° W 05:06:23 88° N 05:11:20 10° E visible
27 Oct 7.8 03:36:25 51° ESE 03:36:25 51° ESE 03:40:16 10° ENE visible
27 Oct 7.2 05:13:04 19° W 05:16:29 84° N 05:21:26 10° E visible
28 Oct 7.4 03:46:08 66° E 03:46:08 66° E 03:50:20 10° E visible
28 Oct 7.2 05:22:47 16° W 05:26:34 86° N 05:31:32 10° E visible
29 Oct 10.3 02:19:11 10° E 02:19:11 10° E 02:19:13 10° E visible
29 Oct 7.1 03:55:49 80° ENE 03:55:49 80° ENE 04:00:24 10° E visible
29 Oct 7.2 05:32:28 13° W 05:36:38 86° SSW 05:41:35 10° ESE visible
30 Oct 10.1 02:28:51 13° E 02:28:51 13° E 02:29:18 10° ENE visible
30 Oct 7.0 04:05:30 82° NW 04:05:37 84° N 04:10:28 10° E visible
30 Oct 7.3 05:42:08 11° WNW 05:46:39 73° SSW 05:51:34 10° ESE visible
31 Oct 9.9 02:38:31 15° E 02:38:31 15° E 02:39:21 10° ENE visible
31 Oct 7.0 04:15:09 70° WNW 04:15:40 85° N 04:20:32 10° E visible
31 Oct 7.6 05:51:59 10° WNW 05:56:36 57° SSW 06:01:26 10° SE visible
01 Nov 9.7 02:48:11 18° E 02:48:11 18° E 02:49:22 10° E visible
01 Nov 7.0 04:24:49 59° W 04:25:41 88° S 04:30:33 10° ESE visible
01 Nov 8.0 06:02:02 10° W 06:06:28 42° SSW 06:11:06 10° SE visible
02 Nov 9.5 02:57:51 20° E 02:57:51 20° E 02:59:24 10° E visible
02 Nov 7.1 04:34:30 50° W 04:35:40 75° SSW 04:40:31 10° ESE visible
